Wetbulb
62.26 64.15 63.59 56.80 47.77 46.69 44.99 47.88 49.61 50.17 51.11 54.62 57.23 58.54 56.71 57.40 54.60 49.79 63.48 65.09 67.08 67.39 68.54 68.85 70.08 70.27 70.33 70.51 70.24 70.20 69.08 68.77 68.12 67.75 67.66 68.73 69.28 69.77 70.02 69.63 70.32 69.84 69.14 68.49 67.84 66.98 66.76 65.86 65.20
60.52 64.83 57.31 51.49 45.28 41.78 42.92 47.29 49.28 50.29 54.45 56.72 57.57 56.80 56.58 54.73 60.00 60.70 61.45 66.18 67.30 67.92 68.44 68.29 69.30 70.39 70.19 70.06 70.46 70.15 69.13 68.51 67.97 67.45 67.07 68.12 68.29 68.51 69.00 69.05 68.62 68.53 68.44 67.80 66.82 67.28 66.98 65.88 65.35
62.23 62.06 52.03 47.90 47.83 44.80 43.27 47.72 49.15 51.12 53.73 54.24 55.36 58.43 57.66 56.64 60.47 61.26 64.17 66.55 67.35 67.68 68.41 68.12 69.34 70.21 69.98 70.18 70.37 69.88 69.09 68.35 67.78 67.20 66.71 67.43 67.44 67.80 67.87 67.56 67.26 67.07 67.76 67.44 66.98 66.72 66.13 65.53 64.75
56.59 54.68 50.71 45.89 43.67 46.84 47.36 49.85 51.43 52.11 52.09 56.62 56.48 54.62 59.06 61.86 61.30 63.03 65.62 66.54 66.00 67.07 68.07 68.32 69.81 69.83 69.66 69.90 69.50 69.04 68.53 67.90 67.14 66.80 66.63 66.42 66.30 67.42 67.56 66.85 66.25 65.78 65.97 66.95 67.65 66.89 65.82 65.26 64.92
54.40 50.62 44.10 44.60 44.50 48.06 49.21 51.76 51.30 51.14 51.21 52.99 55.63 52.78 56.40 61.83 64.12 64.34 64.71 65.38 65.62 66.48 67.60 68.46 69.44 69.60 69.79 69.89 68.95 68.66 67.96 67.03 66.90 66.19 66.00 66.01 65.33 66.11 67.02 66.62 65.77 64.92 64.32 64.36 65.52 66.14 65.48 64.71 64.14
49.30 49.10 42.05 39.27 42.84 48.83 49.73 52.35 51.69 49.88 52.65 56.07 56.26 55.74 56.34 63.87 63.27 63.31 64.97 65.60 66.92 66.87 67.86 68.33 66.97 68.17 69.06 69.55 69.31 68.92 68.42 68.12 67.28 66.47 65.85 65.43 65.23 65.46 65.94 66.01 65.52 65.13 64.61 63.85 63.26 63.51 63.84 63.75 63.39
47.21 46.23 42.42 42.60 43.69 46.78 50.27 52.28 50.06 49.83 50.78 53.72 58.21 54.34 58.02 61.42 62.80 63.48 65.64 65.89 66.65 67.38 67.13 66.80 67.24 66.48 66.15 67.21 67.40 67.91 68.31 68.25 68.02 67.69 67.10 66.32 65.90 65.96 65.46 65.81 64.88 63.86 63.84 63.93 63.30 62.76 62.71 62.79 62.66
48.45 47.66 43.66 42.45 44.14 45.10 50.21 49.89 50.88 52.18 49.11 57.79 59.64 54.47 56.43 60.21 62.72 63.83 64.72 64.32 65.08 65.42 65.71 64.88 65.17 65.90 66.08 65.61 64.48 64.91 66.05 66.37 66.80 66.54 65.40 64.07 64.06 64.21 63.94 62.88 64.25 64.12 63.56 63.75 63.76 63.43 63.23 63.37 63.66
49.47 43.82 42.72 43.32 44.23 46.21 50.59 49.33 52.40 53.03 53.44 54.01 56.37 58.66 60.72 63.05 63.03 63.06 62.79 62.96 63.16 64.04 64.43 64.20 64.19 64.52 64.91 65.50 64.57 63.24 63.80 64.34 64.44 63.99 62.75 62.10 63.05 62.91 62.33 61.78 63.00 64.91 64.90 64.73 64.57 64.73 65.14 64.38 63.54
45.88 42.56 45.74 47.41 47.49 47.55 48.97 50.95 52.22 51.24 51.75 54.65 57.48 60.37 62.89 62.56 62.14 62.00 61.81 61.57 61.70 61.93 63.18 64.20 63.67 63.70 64.19 65.92 64.24 64.03 64.13 63.49 63.56 63.96 63.46 63.45 63.00 63.51 64.52 61.66 61.21 63.21 63.32 64.43 65.09 65.38 64.51 62.38 61.79
45.71 43.42 47.94 48.28 50.37 50.29 50.51 50.92 51.76 50.81 48.46 53.98 56.63 59.27 61.17 61.21 60.28 61.47 61.49 61.76 61.65 62.44 63.47 64.33 64.18 64.15 63.96 64.39 63.41 63.17 63.33 62.84 62.98 62.88 62.67 62.92 63.58 63.39 64.32 63.85 62.47 62.05 59.82 60.56 61.78 62.64 63.14 63.00 62.62
43.59 48.48 48.49 50.46 50.95 50.89 49.84 52.88 50.92 49.80 51.36 56.45 60.29 61.13 60.98 60.68 59.85 59.73 60.46 61.03 61.18 61.93 63.04 64.13 64.50 64.73 64.85 65.26 63.16 62.99 63.22 63.00 62.63 63.44 63.78 62.43 62.09 61.62 61.96 61.68 61.22 62.57 61.96 61.96 62.23 62.94 63.00 62.87 62.59
44.87 46.17 48.94 49.24 50.74 50.47 52.08 50.61 51.18 50.51 52.60 60.49 61.10 61.15 60.62 60.71 59.56 59.97 60.87 61.59 61.88 61.65 63.18 63.96 63.71 63.88 64.52 63.85 63.65 63.30 63.59 63.73 63.40 63.54 64.10 63.23 61.24 59.97 59.97 60.61 61.31 61.62 62.39 62.07 60.86 60.86 61.75 60.97 59.57
46.83 47.48 48.19 50.01 49.98 50.74 50.77 49.55 50.79 50.91 54.26 59.24 60.25 60.05 60.54 60.39 59.98 59.47 59.71 60.46 61.62 62.51 62.56 63.46 63.34 63.72 63.75 62.96 63.21 63.19 63.31 63.95 63.61 63.14 63.60 63.59 61.99 61.26 61.05 59.38 59.18 60.82 61.33 61.12 60.22 59.68 59.81 59.14 58.70
48.49 44.95 47.46 49.52 49.09 48.64 49.94 47.63 48.46 51.16 56.47 58.48 58.97 59.03 59.27 59.94 59.98 60.23 60.37 60.59 61.92 62.70 63.12 62.65 63.27 63.69 63.48 63.22 63.34 62.84 62.73 63.40 63.11 62.71 62.65 63.22 63.04 62.04 61.56 60.32 58.55 58.94 59.81 59.54 58.54 58.46 59.01 58.75 58.96
44.97 44.80 42.22 44.88 44.83 48.27 48.33 44.05 49.28 52.20 55.63 56.73 57.05 57.05 58.64 59.42 60.04 59.94 60.97 61.25 61.62 62.02 62.16 62.88 64.65 63.66 63.25 63.31 63.37 63.32 62.84 62.37 62.68 62.41 62.49 62.61 63.39 62.71 61.52 60.76 60.20 60.37 59.49 58.59 58.07 58.10 58.16 58.27 58.16
43.79 38.39 40.66 41.76 44.65 42.40 46.38 44.35 48.94 51.62 54.15 54.10 55.01 56.77 58.07 58.76 58.88 59.64 60.17 60.62 61.41 61.50 61.68 62.62 62.77 63.19 63.07 62.90 63.20 63.09 63.23 62.34 62.13 62.34 62.51 62.65 62.65 62.98 62.37 61.60 61.15 61.07 60.49 59.49 59.05 58.63 58.02 57.87 58.09
39.23 38.74 39.86 38.96 41.69 42.71 44.28 44.17 46.61 48.49 52.07 52.16 52.75 54.04 55.69 57.43 58.73 59.38 58.97 59.63 61.31 61.17 61.33 62.77 62.89 62.83 62.72 62.45 62.34 62.11 61.94 62.01 62.13 62.12 62.34 62.52 62.47 62.47 62.11 61.30 60.99 60.86 60.16 59.78 59.16 58.76 58.84 58.61 58.37
43.26 41.18 39.42 41.11 43.71 41.03 39.46 39.85 41.77 44.33 46.34 49.20 50.55 51.46 53.74 55.52 58.76 57.87 58.34 58.78 59.01 59.50 59.86 60.45 60.83 61.51 61.46 60.75 60.48 60.22 60.49 61.16 61.50 61.80 62.24 61.73 59.84 58.94 58.30 57.82 57.79 58.26 58.91 59.09 59.41 58.95 58.42 57.97 57.91
43.40 40.77 40.45 42.14 43.76 42.79 41.26 41.50 43.63 44.17 44.62 47.57 49.10 51.10 52.58 53.35 54.66 56.18 56.61 56.95 57.31 58.01 58.88 59.38 59.88 60.69 60.84 60.38 60.10 60.89 60.37 60.54 60.28 59.68 59.88 58.54 56.20 56.19 55.73 55.32 55.18 55.72 57.11 57.79 58.12 58.17 57.11 57.59 57.15
42.08 40.28 40.65 40.46 42.59 43.00 42.35 40.96 41.22 44.77 42.81 45.75 48.21 48.31 51.42 53.67 53.15 48.73 48.44 49.21 53.46 52.54 54.52 57.84 58.87 59.35 59.59 59.69 58.37 57.18 54.87 54.24 53.87 54.55 55.12 55.67 55.23 55.19 55.75 55.85 56.06 56.29 56.47 57.18 57.44 57.39 57.84 56.76 56.25
38.95 43.79 43.02 40.57 39.95 36.26 41.86 35.12 41.00 42.04 44.01 44.53 47.20 47.92 44.38 45.44 44.43 43.46 43.46 44.11 44.81 44.92 46.36 48.08 49.72 51.17 53.45 55.40 55.36 55.20 54.63 54.06 52.50 52.71 52.88 53.45 53.81 54.01 54.52 54.99 55.18 55.45 56.29 57.34 57.95 57.67 57.89 56.47 55.96
40.31 43.07 41.20 41.07 37.46 35.75 36.62 34.74 38.32 40.63 42.12 43.72 42.84 41.77 42.16 43.17 44.01 43.76 43.47 44.16 43.87 44.75 44.76 45.27 46.47 47.27 48.07 48.87 50.08 50.88 50.76 50.42 50.27 50.49 50.82 51.07 51.45 52.12 52.50 52.62 52.70 53.18 54.04 54.53 55.46 55.40 55.13 55.17 55.77
43.85 40.38 38.80 37.87 36.95 31.09 33.83 36.45 33.84 40.38 42.84 42.84 43.46 40.21 42.03 42.52 43.18 43.83 44.57 45.17 44.37 44.15 44.45 44.81 45.35 45.94 46.87 46.69 47.24 47.80 47.96 48.33 48.25 48.74 49.43 49.84 49.30 49.41 49.79 50.31 50.14 50.89 51.80 52.35 52.72 52.85 53.17 53.66 54.67
41.33 37.03 28.88 27.69 28.16 26.81 32.17 32.69 34.98 38.97 41.43 46.18 44.15 41.24 42.40 43.46 44.39 44.80 44.86 44.93 43.96 44.36 44.27 44.43 44.15 44.63 45.64 45.52 45.79 46.54 46.63 46.68 46.62 47.00 47.91 48.47 48.42 48.24 49.07 48.46 48.31 48.70 49.31 50.10 50.63 50.48 50.60 50.74 51.13
38.93 35.81 29.43 21.10 22.98 25.11 30.53 29.80 34.83 38.58 39.10 40.38 41.15 41.53 42.73 43.27 43.98 44.12 44.86 44.99 44.36 44.12 43.89 43.28 43.49 43.52 43.89 44.06 44.20 44.59 45.00 44.99 45.82 46.90 47.88 48.48 48.60 49.49 48.53 47.45 47.26 47.19 47.61 47.81 48.03 47.53 47.53 47.21 49.08
36.74 33.35 36.16 26.93 23.08 25.24 27.13 31.22 35.66 37.73 37.73 38.91 39.58 41.20 41.05 42.23 43.26 43.26 42.57 42.82 43.01 43.05 43.02 42.78 42.58 42.89 42.99 43.29 43.42 43.16 43.17 43.20 43.79 45.05 46.56 47.74 48.03 48.92 48.06 46.63 45.71 45.52 45.57 45.38 45.43 44.93 44.95 45.43 44.62
37.28 38.16 30.10 26.99 17.91 17.66 23.79 25.68 27.39 31.87 34.99 38.19 38.54 39.13 40.40 41.80 41.84 41.30 41.62 41.88 42.48 42.63 42.65 42.90 42.51 42.31 42.56 42.64 42.67 42.94 42.30 42.49 42.85 43.36 43.93 44.95 45.94 45.92 45.30 44.51 44.07 43.57 43.11 42.32 42.03 41.86 43.82 43.81 44.11
32.84 29.92 30.60 30.62 25.49 19.77 18.38 23.11 33.12 33.87 36.39 37.34 38.12 39.62 40.24 40.28 40.10 40.39 40.81 41.10 41.08 41.50 41.45 41.60 41.77 41.41 41.63 41.87 41.67 41.59 41.80 41.63 41.45 41.37 41.99 42.74 43.65 43.91 43.47 42.23 41.83 41.66 41.19 40.67 39.79 39.75 39.96 41.07 42.09
36.26 33.39 32.07 25.77 22.85 24.48 25.18 24.60 36.20 37.00 36.17 37.04 37.67 38.36 38.90 39.39 39.37 39.38 39.69 39.56 39.59 39.60 39.77 39.53 39.53 39.53 39.84 40.19 40.29 40.70 40.94 40.66 40.12 40.32 40.52 41.05 41.28 41.95 42.03 41.37 40.30 40.17 39.81 39.53 38.72 38.69 39.15 39.26 40.08
MSLP
1014.64 1014.79 1015.08 1015.13 1016.25 1016.10 1015.47 1014.73 1014.39 1014.31 1014.42 1014.59 1014.57 1015.08 1016.37 1017.13 1017.78 1018.85 1018.46 1018.87 1019.31 1020.01 1020.43 1020.70 1020.88 1021.12 1021.22 1021.43 1021.65 1021.75 1021.84 1021.97 1022.08 1022.18 1022.23 1022.22 1022.19 1022.21 1022.21 1022.28 1022.25 1022.27 1022.45 1022.50 1022.67 1022.73 1022.95 1023.05 1022.93
1014.76 1014.89 1015.23 1015.61 1016.22 1016.17 1015.53 1014.78 1014.54 1014.36 1014.63 1014.83 1014.90 1015.87 1016.60 1017.68 1017.83 1018.54 1019.02 1019.22 1019.44 1020.02 1020.56 1020.90 1021.15 1021.32 1021.52 1021.72 1021.86 1021.99 1022.09 1022.19 1022.30 1022.44 1022.54 1022.52 1022.49 1022.55 1022.65 1022.68 1022.70 1022.71 1022.76 1022.80 1022.97 1023.03 1023.15 1023.31 1023.17
1014.68 1014.78 1015.82 1016.06 1016.10 1015.69 1015.41 1014.94 1014.75 1014.72 1014.73 1014.73 1015.70 1016.18 1017.04 1017.90 1018.18 1018.53 1018.75 1019.18 1019.68 1020.21 1020.61 1021.01 1021.29 1021.49 1021.67 1021.90 1022.08 1022.24 1022.39 1022.53 1022.62 1022.66 1022.79 1022.86 1022.91 1022.94 1023.01 1023.10 1023.12 1023.18 1023.09 1023.12 1023.25 1023.33 1023.47 1023.52 1023.45
1014.91 1015.36 1016.21 1016.30 1015.84 1015.01 1014.72 1014.81 1014.53 1014.80 1014.91 1015.05 1015.87 1017.02 1017.37 1017.41 1017.91 1018.34 1018.93 1019.38 1019.93 1020.43 1020.74 1021.12 1021.35 1021.62 1021.83 1022.00 1022.20 1022.43 1022.59 1022.74 1022.86 1022.92 1022.98 1023.15 1023.24 1023.28 1023.29 1023.41 1023.44 1023.48 1023.43 1023.43 1023.42 1023.62 1023.75 1023.74 1023.62
1015.53 1016.17 1016.58 1016.45 1015.59 1014.72 1014.34 1014.47 1014.56 1014.80 1015.30 1015.80 1016.06 1017.49 1017.78 1017.77 1017.78 1018.59 1019.30 1019.60 1020.05 1020.64 1021.00 1021.22 1021.44 1021.71 1022.01 1022.14 1022.26 1022.47 1022.68 1022.79 1022.93 1023.14 1023.23 1023.33 1023.42 1023.46 1023.51 1023.60 1023.67 1023.71 1023.74 1023.78 1023.78 1023.84 1023.89 1023.88 1023.72
1016.32 1016.60 1016.86 1016.51 1015.55 1014.69 1014.51 1014.37 1014.52 1014.92 1015.53 1016.12 1016.74 1017.56 1018.17 1018.03 1018.33 1018.99 1019.43 1019.98 1020.28 1020.74 1021.22 1021.59 1021.76 1021.90 1022.10 1022.38 1022.47 1022.52 1022.71 1022.88 1023.01 1023.16 1023.32 1023.43 1023.53 1023.59 1023.58 1023.65 1023.75 1023.82 1023.87 1023.94 1023.99 1023.99 1023.96 1023.93 1023.86
1016.72 1017.07 1016.85 1016.29 1015.42 1014.86 1014.53 1014.36 1014.63 1015.00 1015.54 1016.10 1016.24 1017.80 1018.31 1018.36 1018.60 1019.07 1019.59 1020.03 1020.50 1020.90 1021.36 1021.81 1022.09 1022.22 1022.28 1022.50 1022.76 1022.74 1022.76 1022.88 1023.00 1023.12 1023.28 1023.42 1023.60 1023.75 1023.80 1023.83 1023.83 1023.85 1023.92 1023.97 1024.00 1024.03 1023.98 1023.93 1023.85
1016.85 1017.21 1016.76 1016.14 1015.35 1014.69 1014.23 1014.42 1014.38 1014.72 1015.61 1015.77 1016.03 1017.40 1018.16 1018.19 1018.66 1019.21 1019.87 1020.43 1020.89 1021.05 1021.43 1021.88 1022.17 1022.40 1022.46 1022.59 1022.83 1022.98 1022.99 1023.03 1023.13 1023.21 1023.36 1023.48 1023.55 1023.69 1023.82 1023.90 1023.94 1023.90 1023.89 1023.94 1023.98 1023.99 1023.98 1023.91 1023.84
1016.80 1017.28 1016.80 1016.00 1015.48 1014.54 1014.07 1014.28 1014.52 1014.62 1015.39 1015.84 1015.96 1016.42 1016.40 1017.68 1018.50 1019.33 1020.07 1020.76 1021.29 1021.55 1021.50 1021.82 1022.07 1022.42 1022.59 1022.62 1022.75 1022.97 1023.10 1023.14 1023.28 1023.37 1023.38 1023.48 1023.59 1023.69 1023.77 1023.80 1023.85 1023.89 1023.92 1023.91 1023.90 1023.86 1023.84 1023.81 1023.73
1017.36 1017.33 1016.46 1015.69 1015.20 1014.80 1014.32 1014.22 1014.57 1014.96 1015.50 1016.20 1016.33 1016.45 1016.80 1017.75 1018.51 1019.19 1019.90 1020.52 1021.27 1021.68 1021.74 1021.62 1021.94 1022.18 1022.50 1022.55 1022.72 1022.88 1023.11 1023.34 1023.40 1023.42 1023.51 1023.46 1023.48 1023.46 1023.50 1023.70 1023.78 1023.77 1023.81 1023.76 1023.71 1023.68 1023.66 1023.66 1023.66
1017.42 1017.09 1016.39 1015.78 1015.39 1014.94 1014.42 1014.58 1014.63 1015.02 1015.66 1015.77 1016.22 1016.82 1017.36 1017.87 1018.69 1019.25 1019.79 1020.02 1020.68 1021.12 1021.62 1021.65 1021.72 1021.84 1022.09 1022.21 1022.51 1022.67 1022.87 1023.08 1023.21 1023.36 1023.41 1023.45 1023.34 1023.26 1023.18 1023.28 1023.38 1023.59 1023.65 1023.76 1023.67 1023.52 1023.44 1023.34 1023.20
1018.10 1017.02 1016.65 1016.10 1015.48 1015.06 1014.62 1014.43 1014.74 1014.99 1014.87 1014.93 1015.76 1016.30 1017.30 1017.90 1018.59 1019.09 1019.63 1020.03 1020.33 1020.84 1020.99 1021.22 1021.47 1021.67 1021.75 1021.83 1022.34 1022.57 1022.82 1022.84 1022.97 1022.97 1022.99 1023.20 1023.34 1023.25 1023.20 1023.23 1023.24 1023.13 1023.37 1023.34 1023.30 1023.32 1023.21 1023.12 1022.94
1018.18 1017.35 1016.62 1016.36 1015.48 1015.21 1014.72 1014.53 1014.76 1014.99 1014.98 1015.36 1016.15 1016.81 1017.34 1017.91 1018.54 1019.01 1019.28 1019.70 1020.04 1020.27 1020.43 1020.56 1020.67 1021.04 1021.37 1021.60 1021.96 1022.20 1022.36 1022.50 1022.55 1022.70 1022.73 1022.82 1023.00 1023.07 1023.03 1022.94 1022.99 1022.95 1022.86 1022.87 1023.03 1022.96 1022.80 1022.76 1022.82
1018.19 1017.59 1016.77 1016.08 1015.79 1015.50 1014.98 1014.98 1014.96 1015.17 1015.34 1016.03 1016.57 1017.05 1017.47 1017.78 1018.22 1018.75 1019.27 1019.47 1019.69 1019.83 1020.00 1020.11 1020.23 1020.44 1020.88 1021.24 1021.39 1021.75 1022.08 1022.11 1022.28 1022.33 1022.35 1022.49 1022.66 1022.77 1022.85 1022.95 1022.93 1022.78 1022.69 1022.61 1022.78 1022.84 1022.79 1022.72 1022.72
1018.13 1017.77 1016.83 1016.29 1015.95 1015.88 1015.57 1015.45 1015.36 1015.36 1015.71 1016.36 1016.96 1017.34 1017.65 1018.00 1018.10 1018.31 1018.59 1019.03 1019.17 1019.38 1019.73 1019.86 1020.02 1020.28 1020.76 1021.09 1021.22 1021.34 1021.62 1021.76 1021.93 1022.03 1021.97 1022.01 1022.19 1022.26 1022.29 1022.43 1022.53 1022.50 1022.43 1022.40 1022.46 1022.43 1022.47 1022.54 1022.46
1018.71 1018.46 1017.83 1016.84 1016.65 1016.35 1016.29 1015.92 1015.61 1015.76 1016.07 1016.84 1017.12 1017.56 1017.70 1017.78 1017.82 1017.97 1018.13 1018.54 1018.94 1019.06 1019.52 1019.60 1019.68 1019.83 1020.07 1020.50 1020.81 1020.95 1021.19 1021.46 1021.58 1021.64 1021.58 1021.50 1021.46 1021.66 1021.82 1021.98 1021.97 1021.80 1021.95 1022.12 1022.18 1022.17 1022.28 1022.29 1022.28
1019.09 1018.64 1018.26 1017.98 1017.44 1018.02 1016.96 1016.47 1015.99 1016.15 1016.61 1017.03 1017.35 1017.63 1017.66 1017.84 1017.96 1017.82 1017.81 1018.05 1018.48 1018.76 1019.01 1019.29 1019.50 1019.77 1020.04 1020.19 1020.58 1020.79 1020.92 1021.15 1021.34 1021.24 1021.34 1021.15 1021.10 1021.09 1021.30 1021.35 1021.32 1021.42 1021.59 1021.66 1021.71 1021.87 1022.09 1022.16 1022.03
1018.55 1018.94 1018.91 1018.60 1018.99 1018.78 1017.68 1017.16 1016.71 1016.76 1017.06 1017.13 1017.35 1017.60 1017.62 1017.57 1017.34 1017.57 1017.75 1017.86 1017.91 1018.20 1018.60 1018.96 1019.29 1019.64 1019.82 1020.13 1020.34 1020.64 1020.97 1020.98 1020.98 1020.96 1020.83 1020.88 1020.74 1020.75 1020.90 1020.99 1020.98 1021.17 1021.37 1021.37 1021.53 1021.65 1021.52 1021.53 1021.49
1018.20 1018.82 1019.31 1019.54 1019.49 1019.76 1018.90 1018.04 1017.53 1017.26 1017.25 1017.49 1017.68 1017.58 1017.48 1017.32 1016.97 1017.20 1017.48 1017.75 1017.89 1018.22 1018.68 1018.95 1019.28 1019.35 1019.72 1020.36 1020.55 1020.73 1020.91 1020.75 1020.52 1020.40 1020.35 1020.47 1020.57 1020.56 1020.58 1020.67 1020.75 1020.90 1021.15 1021.01 1021.07 1021.12 1021.22 1021.25 1021.28
1018.41 1018.76 1019.72 1020.39 1020.60 1020.12 1019.66 1018.74 1017.78 1017.19 1017.26 1017.22 1017.14 1017.35 1017.28 1017.16 1017.31 1017.46 1017.70 1017.89 1018.03 1018.30 1018.41 1018.70 1019.06 1019.36 1019.46 1019.81 1020.05 1020.07 1020.14 1020.19 1020.14 1019.91 1020.15 1020.11 1020.28 1020.37 1020.48 1020.62 1020.52 1020.54 1020.83 1020.76 1020.70 1020.77 1020.87 1020.70 1020.82
1018.99 1018.77 1019.67 1020.34 1020.94 1020.74 1020.02 1019.25 1018.22 1017.32 1017.20 1017.03 1017.21 1017.27 1017.55 1017.75 1018.18 1018.47 1018.60 1019.04 1018.90 1019.17 1019.35 1019.35 1019.57 1019.70 1019.79 1019.80 1020.03 1020.17 1020.19 1020.36 1020.49 1020.17 1020.01 1020.04 1020.04 1020.07 1020.22 1020.16 1020.30 1020.20 1020.37 1020.49 1020.31 1020.31 1020.48 1020.41 1020.38
1019.48 1019.53 1020.07 1020.59 1021.17 1021.53 1021.27 1020.33 1018.94 1018.32 1017.69 1017.27 1017.67 1018.17 1018.40 1018.65 1018.76 1019.00 1019.33 1019.65 1019.86 1020.05 1019.85 1019.90 1020.03 1020.06 1020.08 1019.98 1020.15 1020.39 1020.39 1020.78 1020.55 1020.20 1020.08 1020.03 1019.91 1019.91 1020.10 1019.95 1020.07 1020.13 1020.06 1020.18 1019.89 1019.80 1019.96 1020.06 1020.06
1019.79 1020.16 1020.66 1021.20 1021.75 1021.95 1021.89 1021.38 1019.74 1018.91 1018.10 1018.18 1018.48 1019.34 1018.91 1019.22 1020.03 1020.12 1020.22 1020.39 1020.60 1020.57 1020.51 1020.36 1020.28 1020.29 1020.46 1020.55 1020.53 1020.74 1020.90 1021.22 1020.73 1020.56 1020.40 1020.42 1020.31 1020.17 1020.15 1020.14 1020.06 1019.95 1019.91 1019.82 1019.85 1019.62 1019.57 1019.62 1019.54
1020.00 1020.96 1021.75 1022.25 1022.40 1022.43 1021.56 1021.30 1020.13 1019.27 1019.20 1019.60 1020.25 1020.59 1020.25 1020.26 1019.93 1020.29 1020.78 1020.76 1020.84 1020.90 1020.78 1020.73 1020.76 1021.07 1021.15 1021.24 1021.08 1021.14 1021.43 1021.37 1021.24 1021.04 1021.00 1020.64 1020.51 1020.38 1020.05 1020.14 1020.11 1019.97 1019.83 1019.78 1019.69 1019.57 1019.47 1019.26 1019.06
1020.07 1020.81 1022.46 1023.15 1023.07 1022.30 1021.49 1021.46 1020.23 1019.31 1018.99 1019.31 1020.39 1020.95 1021.06 1021.20 1020.70 1020.70 1021.01 1021.42 1021.60 1021.51 1021.42 1021.63 1021.80 1021.59 1021.54 1021.52 1021.24 1021.33 1021.38 1021.47 1021.38 1021.31 1021.21 1021.08 1020.85 1020.46 1020.08 1019.88 1019.95 1019.86 1019.62 1019.42 1019.33 1019.42 1019.29 1018.99 1018.82
1019.90 1020.14 1020.74 1021.73 1022.59 1022.34 1021.73 1020.95 1020.34 1019.41 1018.98 1019.20 1020.22 1021.02 1021.70 1021.99 1021.74 1021.46 1021.24 1021.68 1022.15 1021.95 1022.05 1022.09 1022.17 1022.15 1021.98 1021.66 1021.67 1021.66 1021.73 1021.65 1021.73 1021.53 1021.31 1021.22 1021.00 1020.41 1019.95 1019.86 1019.71 1019.65 1019.54 1019.46 1019.34 1019.42 1019.30 1019.27 1019.06
1019.87 1019.87 1019.74 1021.03 1022.48 1021.99 1021.61 1020.80 1020.31 1019.76 1019.88 1020.16 1020.69 1020.89 1021.42 1021.65 1022.23 1022.47 1022.52 1022.67 1022.85 1022.84 1022.85 1022.82 1022.66 1022.47 1022.35 1022.13 1022.01 1021.86 1021.62 1021.61 1021.62 1021.45 1021.36 1020.99 1020.61 1020.27 1019.92 1019.73 1019.63 1019.45 1019.26 1019.34 1019.19 1019.14 1018.85 1018.93 1018.75
1018.84 1018.87 1019.67 1020.51 1021.91 1022.15 1021.73 1020.75 1020.60 1020.49 1020.52 1020.52 1021.39 1021.94 1022.22 1022.33 1022.90 1023.29 1023.34 1023.53 1023.45 1023.36 1023.21 1022.93 1022.88 1022.91 1022.84 1022.56 1022.27 1021.94 1021.57 1021.63 1021.53 1021.28 1021.03 1020.76 1020.30 1020.10 1019.84 1019.70 1019.51 1019.38 1019.23 1019.25 1019.39 1019.14 1018.98 1018.89 1018.63
1018.90 1018.69 1019.29 1019.99 1021.30 1021.83 1021.77 1021.13 1020.55 1020.56 1020.72 1020.80 1021.53 1022.05 1022.74 1023.32 1023.60 1023.84 1024.02 1024.15 1024.07 1023.86 1023.66 1023.67 1023.69 1023.64 1023.58 1023.05 1022.45 1022.28 1022.17 1021.84 1021.54 1021.27 1020.98 1020.70 1020.15 1019.82 1019.48 1019.25 1019.18 1019.15 1019.12 1019.12 1019.03 1018.93 1018.95 1018.92 1018.69
1018.76 1018.64 1019.06 1020.22 1021.46 1021.54 1021.25 1021.50 1020.65 1020.91 1021.31 1021.40 1022.01 1022.89 1023.59 1024.03 1024.30 1024.44 1024.53 1024.72 1024.77 1024.66 1024.55 1024.60 1024.62 1024.44 1023.96 1023.58 1023.04 1022.89 1022.35 1021.92 1021.78 1021.42 1021.00 1020.48 1020.24 1019.67 1019.28 1018.84 1018.61 1018.48 1018.51 1018.51 1018.66 1018.68 1018.57 1018.73 1018.58
Wind_Speed
4 5 2 4 4 4 3 2 1 3 4 5 2 9 8 5 2 3 4 9 16 11 8 8 12 12 14 13 13 12 13 12 12 11 12 11 12 13 14 15 13 14 14 14 12 12 12 10 10
1 2 4 2 4 2 4 3 4 1 6 8 9 4 7 3 4 8 5 12 15 12 8 7 11 12 13 13 12 11 12 11 11 10 10 11 11 11 12 13 13 12 12 12 11 11 11 8 9
2 1 4 3 1 2 2 4 6 2 3 3 5 6 4 3 5 7 10 14 13 11 9 9 11 13 12 12 12 11 11 10 10 10 10 11 10 10 11 11 11 10 11 10 9 10 9 8 7
3 5 4 3 4 4 7 8 6 6 2 8 6 8 4 0 5 8 14 14 12 9 9 10 12 13 13 13 13 11 10 9 9 9 10 9 8 9 10 10 10 9 9 9 8 9 7 7 6
3 3 3 1 4 3 2 4 3 6 4 3 2 2 3 3 13 17 13 12 12 8 8 8 11 12 12 12 13 12 10 10 10 9 8 8 8 8 9 9 9 8 8 7 6 6 5 4 5
4 3 3 2 5 2 1 4 6 4 3 4 7 6 2 11 16 13 12 11 10 10 8 6 8 9 9 9 10 12 11 10 10 10 9 8 7 7 7 7 6 5 5 5 4 3 2 2 2
2 3 3 4 4 3 5 5 6 7 7 2 10 6 3 9 11 12 13 11 10 9 8 6 5 5 6 8 7 8 10 10 10 9 8 8 6 5 5 5 4 4 4 4 4 2 2 1 1
1 2 3 2 4 3 4 5 7 8 2 5 5 7 6 6 11 13 12 10 9 8 8 6 6 5 5 5 7 5 6 7 8 8 7 7 7 6 6 5 3 3 4 4 4 3 3 3 4
3 2 3 2 3 4 5 5 1 1 8 2 2 7 10 15 13 14 12 8 7 6 8 6 6 5 5 5 5 5 5 6 6 6 7 6 3 4 5 5 6 5 4 4 4 5 5 6 7
2 2 5 1 2 4 1 4 6 5 5 4 5 7 19 15 14 16 13 12 8 7 7 8 7 7 6 5 5 5 4 3 4 4 5 3 4 4 5 6 7 8 7 7 7 8 7 6 4
2 4 1 2 4 2 4 4 2 10 2 6 11 19 17 13 10 14 13 14 12 10 7 8 8 8 8 6 4 3 3 3 3 6 5 5 4 4 4 3 3 3 6 3 5 5 3 5 4
4 3 4 5 4 5 4 5 5 1 6 11 17 22 16 14 12 11 13 10 10 10 10 10 9 8 9 5 5 4 3 3 3 5 6 4 3 3 3 3 4 5 3 4 4 3 4 5 6
2 3 6 7 9 6 2 3 7 4 2 12 14 16 16 14 8 8 10 10 10 10 11 12 10 9 8 7 5 4 5 4 5 4 5 4 4 4 3 4 4 4 4 4 4 5 4 5 6
4 3 5 4 6 4 5 2 3 3 10 14 17 14 14 14 12 7 8 11 12 12 11 10 9 8 7 6 7 5 4 5 4 4 5 7 5 5 4 4 4 4 4 4 4 4 4 4 3
2 2 6 1 4 4 3 1 5 3 11 16 13 10 10 11 9 12 10 10 13 9 10 8 8 7 7 7 7 5 5 5 5 5 7 7 6 6 6 5 5 5 5 6 4 4 3 4 3
5 1 4 3 9 4 1 7 3 5 14 12 10 8 10 10 12 9 10 9 8 9 9 8 9 10 9 8 6 4 4 4 5 5 5 7 9 8 6 5 5 5 4 4 4 4 4 4 4
2 7 4 3 5 6 3 4 3 5 8 11 9 10 10 9 8 9 9 9 9 9 9 11 8 10 10 7 5 5 6 4 4 4 5 7 7 8 7 6 6 5 4 4 4 4 4 4 4
10 8 2 4 3 5 1 2 4 1 7 9 9 8 9 11 15 10 9 9 9 9 8 10 8 8 7 4 4 2 3 3 4 5 5 7 6 7 6 5 5 4 4 4 4 5 4 5 4
14 9 6 1 4 2 4 1 4 5 2 6 7 8 9 11 11 8 8 9 8 6 7 8 8 8 5 2 3 2 4 4 4 5 7 7 6 7 6 4 4 4 5 5 6 4 6 4 2
15 15 8 2 2 1 5 4 4 3 3 5 7 8 9 5 5 5 7 6 6 6 8 7 7 6 5 3 2 3 3 3 2 1 5 6 6 6 5 5 5 5 4 6 6 5 3 4 5
3 15 11 6 3 2 5 5 3 1 2 3 4 3 2 2 3 5 7 6 6 7 6 4 2 1 2 4 1 1 2 1 2 2 3 5 6 6 7 6 5 5 4 6 6 5 7 5 4
5 2 11 7 8 4 3 4 4 2 4 4 2 4 6 6 6 7 7 6 7 6 6 7 6 6 4 1 2 4 3 4 3 2 2 5 5 6 6 6 5 5 4 7 7 5 6 5 5
3 7 7 5 5 4 0 1 5 3 5 5 10 6 7 9 6 7 7 7 6 6 7 6 7 6 6 6 4 2 4 2 3 3 6 5 5 6 6 5 6 5 4 5 6 5 5 4 3
15 12 12 7 2 3 6 6 4 6 6 2 3 7 5 5 8 8 6 6 6 6 7 7 9 7 8 7 7 5 6 6 4 4 5 5 4 4 6 6 5 5 5 5 5 6 6 6 4
12 9 4 2 3 4 4 6 6 4 11 12 11 3 6 6 6 7 8 6 6 6 8 6 7 7 7 8 8 7 6 6 6 6 5 6 4 4 7 5 6 5 6 6 5 6 7 6 4
15 4 5 7 6 4 4 5 2 2 4 11 11 12 10 6 4 7 7 7 7 9 9 8 9 8 8 7 7 6 5 3 4 5 5 4 5 6 5 6 6 7 6 6 5 4 4 4 5
6 5 4 7 2 4 4 3 2 4 7 9 8 8 7 8 6 6 9 8 7 7 6 5 6 6 7 7 6 6 6 6 6 7 5 4 5 5 7 6 6 7 7 6 5 5 6 5 5
4 6 3 3 4 2 2 1 4 4 7 10 10 7 6 6 9 8 8 7 6 7 5 8 8 7 7 8 6 6 6 6 6 5 7 7 6 5 6 7 7 7 6 6 6 5 6 6 6
3 2 4 5 4 5 5 4 4 7 7 12 9 8 7 9 8 7 7 6 6 8 10 11 12 11 11 9 7 7 7 6 6 6 6 7 6 7 7 7 7 7 6 6 6 6 6 8 8
3 5 4 4 3 0 2 2 4 8 6 7 8 10 10 8 7 7 7 6 8 8 9 8 7 7 9 8 8 8 8 8 7 8 8 7 8 7 8 7 7 7 7 7 7 10 8 9 10
Wind_Direction
64 114 54 44 55 57 295 306 74 128 62 318 46 94 106 62 78 180 134 131 131 137 141 139 135 133 129 127 131 119 112 103 97 92 89 93 96 93 88 87 86 90 88 88 84 87 83 76 67
102 127 40 71 89 51 278 283 133 108 145 134 89 86 48 76 85 114 97 144 136 138 138 133 132 135 131 137 131 125 119 111 106 103 97 93 101 95 91 89 84 83 92 88 89 88 87 79 62
247 100 73 91 148 211 216 164 153 134 183 104 95 63 96 111 99 135 134 138 135 138 138 139 138 138 137 145 131 126 120 116 110 106 104 99 91 90 95 89 86 82 80 92 94 93 89 79 63
12 12 24 94 237 265 185 189 167 132 61 56 109 68 58 120 132 135 136 136 132 137 136 145 141 142 139 133 130 130 128 123 119 117 114 107 99 87 105 91 85 84 86 83 105 101 96 84 65
33 56 56 287 270 291 107 187 213 117 104 86 106 105 66 78 122 129 136 138 134 129 139 145 143 143 146 148 145 141 137 133 129 123 120 117 111 112 106 102 95 91 88 90 94 103 102 80 59
16 91 76 221 271 48 18 201 137 96 97 146 79 94 135 126 130 139 131 130 130 131 136 140 146 147 149 151 151 147 145 143 141 137 134 133 129 128 131 126 123 117 110 104 104 108 102 75 30
52 76 221 152 253 154 213 172 136 138 138 149 142 93 112 143 136 131 131 126 130 129 122 117 132 148 148 151 161 161 162 161 161 156 149 143 143 142 140 139 146 143 142 136 128 132 139 195 279
74 89 276 181 214 241 186 164 153 140 139 101 143 156 174 189 135 125 127 124 129 132 132 137 140 151 146 150 147 155 174 170 172 164 161 161 166 171 170 174 194 188 174 175 181 202 230 258 277
59 37 247 215 188 245 175 130 213 70 119 92 112 158 157 149 134 128 131 122 127 142 148 149 152 163 165 160 159 151 151 145 153 160 173 179 193 205 210 205 207 207 207 216 231 243 254 271 278
137 173 228 239 276 274 215 121 155 104 130 36 57 84 137 140 142 145 153 146 154 163 171 167 167 170 170 176 166 174 177 186 193 192 209 216 211 219 207 206 221 222 224 237 248 256 261 267 254
263 220 223 270 305 269 159 129 98 122 263 188 157 144 154 148 146 155 158 157 172 172 174 179 179 179 176 185 177 180 180 191 199 212 216 217 222 217 199 192 200 204 223 239 249 262 248 243 241
276 290 28 312 299 318 163 150 106 188 222 159 157 155 156 164 161 163 162 166 162 163 178 181 192 187 194 173 175 189 190 198 206 212 215 201 224 218 217 210 209 199 204 225 226 238 242 256 262
244 309 319 310 299 298 305 209 159 220 69 133 138 153 160 166 160 161 165 172 172 177 185 187 180 178 193 172 179 188 201 198 212 213 220 201 212 218 222 226 212 219 206 213 229 227 229 227 239
169 254 280 305 298 304 161 204 140 234 140 139 153 163 168 169 164 162 173 178 180 185 188 191 185 184 182 191 181 190 201 209 213 217 217 211 210 213 215 236 238 228 218 214 225 227 243 255 258
104 11 323 304 347 297 317 104 207 150 147 152 164 165 167 176 169 183 184 184 184 190 192 187 189 187 187 193 195 190 206 205 207 212 214 208 212 213 211 215 225 228 227 232 231 240 243 260 244
124 38 181 9 17 296 258 217 220 164 145 164 166 170 176 189 190 194 189 182 186 178 192 188 194 189 191 194 200 201 199 202 213 216 211 214 214 212 213 217 229 222 217 220 225 233 238 232 228
308 198 192 168 71 292 211 217 183 168 169 170 176 180 184 192 215 213 196 189 187 190 183 194 192 194 196 196 195 208 216 209 227 224 229 225 222 219 218 224 232 226 225 223 224 241 208 241 239
156 171 110 177 5 335 238 26 35 13 171 189 185 189 190 196 211 211 202 197 193 193 189 197 194 203 196 187 185 220 247 253 232 230 225 235 227 222 218 229 236 223 231 238 230 231 226 218 233
153 161 139 55 349 297 340 238 307 331 250 189 208 196 202 207 214 200 195 195 197 194 188 197 187 207 156 168 169 193 217 222 229 221 234 237 235 234 224 230 239 233 229 231 219 216 221 235 198
178 155 167 97 312 162 358 301 289 306 245 211 201 206 209 203 181 186 199 197 194 189 203 208 205 197 187 160 192 183 180 221 232 226 246 239 240 248 233 231 237 237 248 250 237 208 218 222 179
199 183 169 166 132 42 340 329 359 304 235 188 248 164 132 203 111 34 48 40 57 51 22 40 34 218 218 208 148 51 18 343 314 258 264 253 229 228 229 234 242 249 226 252 244 218 213 232 211
175 179 180 141 161 194 336 232 304 309 330 353 253 52 64 64 80 78 62 54 53 50 53 65 58 45 34 59 219 223 220 246 249 252 270 277 238 243 249 251 250 259 252 252 253 237 228 204 220
141 109 110 127 104 126 280 58 276 35 313 40 356 112 86 78 58 72 66 70 49 37 36 30 27 21 5 1 357 316 294 295 305 310 308 306 289 268 272 268 268 262 260 262 260 251 222 217 187
121 93 59 43 62 214 184 170 254 194 221 71 18 355 5 108 99 86 61 51 51 33 32 24 19 11 10 6 354 340 308 311 312 309 297 298 301 281 266 271 269 271 271 270 270 260 248 227 201
132 137 107 121 193 217 157 145 254 198 180 213 176 95 8 345 59 82 85 59 45 38 39 34 24 12 2 3 356 347 336 327 313 299 288 294 289 277 274 265 269 266 259 260 255 253 248 238 215
163 179 155 165 177 160 133 196 195 100 72 102 133 152 149 130 104 70 65 61 37 26 22 18 14 2 356 359 351 345 332 323 305 303 307 295 284 277 282 269 261 263 268 271 267 264 269 270 257
192 202 155 112 28 96 187 210 27 115 74 95 101 97 96 100 107 72 43 36 25 29 30 19 8 1 357 349 338 329 325 322 309 303 294 285 281 286 288 273 271 262 258 259 258 251 252 241 245
190 169 95 13 123 128 244 231 146 147 132 115 119 120 126 118 71 55 55 49 37 31 23 26 16 6 341 334 324 308 312 303 295 300 298 293 294 292 300 294 279 274 267 262 262 266 265 251 250
164 146 60 104 121 152 137 258 178 175 162 133 134 142 114 80 81 72 62 43 35 32 28 23 17 5 358 349 337 331 315 318 312 305 299 291 295 294 288 275 274 267 266 258 253 253 255 250 256
244 162 145 124 223 132 107 302 30 133 162 140 123 92 92 98 88 68 55 43 33 24 18 11 3 3 3 354 346 336 330 333 323 315 306 305 295 291 275 275 264 256 249 246 245 256 250 242 250